STARLINK-32571, 62055

Orbit data source: Space-Track

STARLINK-32571, 62055 is a payload satellite owned by SpaceX/Seattle (US) in LEO that was launched on Thu, 21 Nov 2024 UTC via an FALCON 9 launch vehicle from the Air Force Eastern Test Range (AFETR). Payloads include a variety of satellites, spacecraft, and rockets equipped with specific instruments for various scientific and technological missions. These include communications satellites like Starlink; space stations such as the ISS; scientific satellites like the Hubble; Earth observation satellites from companies like Planet Labs, Umbra, and HawkEye 360; GPS; miniature CubeSats for education and research; and military/defense satellites.

Loading next visibility...
STARLINK-32571 details
Identifier
62055, 2024-216Z
Orbit
LEO
Last TLE update17 hours ago
Origin
Flag of USSpaceX/Seattle (US)
ManufacturerSpaceX/Seattle
MissionOperational spacecraft
Bus & MotorSTARLINK V2M, Unknown motor
Mass730 kg wet, ~700 kg dry
Launch date (UTC)
2024-11-21 (1 month ago)
Launch vehicle
FALCON 9
Launch site
Air Force Eastern Test Range (AFETR)
Object type
Payload
Rocket body
Debris
Shape & HBRUnknown
Radar Cross SectionLarge (>1 m²)

Expand to show TLE details & history

TLE from 17 hours ago
0 STARLINK-32571
1 62055U 24216Z   24360.70787921  .00003700  00000-0  95811-4 0  9997
2 62055  42.9979 236.6990 0001632 266.2728  93.7942 15.40695016  6591
Epoch: 2024-12-25T16:59Z
Definitive object data (Epoch: 2024-12-25T16:59:20.763Z)
Latitude-0.00002°
Longitude-112.83529°
Altitude443.905 km
Speed7.648 km/s
True Right ascension15h 46m 47s
True Declination0° 00' 00"
Sunlit
Object was in daylight at TLE epoch
Visualization TLE readout
Latitude-36.65685°
Longitude-169.41501°
Altitude453.726 km
Speed7.641 km/s
Apparent Right ascension16h 02m 38s
Apparent Declination-65° 03' 14"
Sunlit
Object is in daylight
Visualization observer readout
Local Sidereal Time09:11:33
Azimuth147.091° SSE
Elevation-40.792°
Doppler factor1
Orbital elements
Apogee altitude447.127 km
Perigee altitude444.9 km
Semi-major axis6,824.15 km
Eccentricity0.0001632
Inclination42.9979°
RAAN236.699°
Arg. of periapsis266.2728°
True anomaly93.81286°
Mean anomaly93.7942°
Eccentric anomaly93.80353°
Mean motion3.85008 °/min
BSTAR0.000095811
Orbital period93.5 mins
Loading maneuver chart data...
Loading historical data...
Loading historical data...
Loading historical data...
Loading historical data...
Loading historical data...
Loading historical data...
Loading historical data...

STARLINK-32571 Visibility forecast

Observer location: undefined°, undefined

Span
Click to sort rows by Start time (UTC) header in descending order
Start Az.
Max El. time (UTC)
Max El. Az.
Max El.
End time (UTC)
End Az.
5 mins2024-12-26 19:41:28.665Z228.638° WSW2024-12-26 19:43:28.665Z122.239° SE40.169°2024-12-26 19:46:28.665Z75.813° E
5 mins2024-12-26 21:19:28.665Z286.385° WNW2024-12-26 21:21:28.665Z9.453° NNE38.059°2024-12-26 21:24:28.665Z71.08° E
5 mins2024-12-26 22:57:28.665Z295.278° NW2024-12-26 22:59:28.665Z359.665° N41.329°2024-12-26 23:02:28.665Z91.711° ESE
5 mins2024-12-27 00:35:28.665Z269.232° W2024-12-27 00:37:28.665Z213.796° SW32.563°2024-12-27 00:40:28.665Z140.202° SSE
|